Weather History for Coldwater, MI

Change the Weather History Date:

Tuesday, February 19, 2013

  Actual Average (KJYM) Record (KJYM)
Temperature  
Mean Temperature 29 °F -  
Max Temperature 43 °F 36 °F 56 °F (1954)
Min Temperature 15 °F 19 °F -12 °F (1979)
Degree Days  
Heating Degree Days 36    
Moisture  
Dew Point 20 °F    
Average Humidity 82    
Maximum Humidity 93    
Minimum Humidity 69    
Precipitation  
Precipitation 0.00 in - - ()
Sea Level Pressure  
Sea Level Pressure 29.71 in    
Wind  
Wind Speed 19 mph (WSW)    
Max Wind Speed 31 mph    
Max Gust Speed 41 mph    
Visibility 6 miles    
Events Rain , Snow    
Averages and records for this station are not official NWS values.
T = Trace of Precipitation, MM = Missing Value Source: NWS Daily Summary

Daily Weather History Graph

Daily Weather History Graph

Search for Another Location

Airport:

Trip Planner

Search our weather history database for the weather conditions in past years. The results will help you decide how hot, cold, wet, or windy it might be!

Date:

Astronomy

Feb. 19, 2013 Rise Set
Actual Time 7:30 AM EST 6:18 PM EST
Civil Twilight 7:01 AM EST 6:46 PM EST
Nautical Twilight 6:29 AM EST 7:19 PM EST
Astronomical Twilight 5:56 AM EST 7:51 PM EST
Moon 12:46 PM EST (2/19) 3:04 AM EST (2/19)
Length of Visible Light 11h 45m
Length of Day
10h 48m
Waxing Gibbous, 67% of the Moon is Illuminated
Feb 19
Waxing Gibbous
Feb 25
Full
Mar 4
Last Quarter
Mar 11
New
Mar 19
First Quarter

Hourly Weather History & Observations

Time (EST) Temp. Windchill Dew Point Humidity Pressure Visibility Wind Dir Wind Speed Gust Speed Precip Events Conditions
12:14 AM 43.9 °F 35.9 °F 39.2 °F 84% 29.51 in 10.0 mi South 18.4 mph 33.4 mph N/A   Overcast
12:34 AM 43.9 °F 36.2 °F 39.0 °F 83% 29.49 in 10.0 mi South 17.3 mph 28.8 mph N/A Rain Light Rain
12:54 AM 43.9 °F 35.7 °F 39.2 °F 84% 29.48 in 10.0 mi South 19.6 mph 31.1 mph N/A Rain Light Rain
1:14 AM 43.7 °F 35.2 °F 39.0 °F 84% 29.47 in 5.0 mi South 20.7 mph 31.1 mph N/A   Overcast
1:34 AM 43.2 °F 35.3 °F 39.2 °F 86% 29.45 in 7.0 mi South 17.3 mph 26.5 mph N/A Rain Light Rain
1:54 AM 43.2 °F 36.6 °F 39.2 °F 86% 29.44 in 10.0 mi South 12.7 mph 23.0 mph N/A Rain Light Rain
2:15 AM 43.0 °F 34.8 °F 39.4 °F 87% 29.42 in 7.0 mi South 18.4 mph 31.1 mph N/A Rain Light Rain
2:34 AM 43.0 °F 36.4 °F 39.9 °F 89% 29.42 in 7.0 mi SSW 12.7 mph 26.5 mph N/A Rain Light Rain
2:54 AM 42.4 °F 31.6 °F 38.8 °F 87% 29.44 in 4.0 mi West 31.1 mph 41.4 mph N/A   Overcast
3:15 AM 35.6 °F 25.2 °F 32.7 °F 89% 29.47 in 4.0 mi West 18.4 mph 29.9 mph N/A Snow Light Snow
3:34 AM 34.7 °F 23.1 °F 32.2 °F 91% 29.49 in 10.0 mi West 21.9 mph 33.4 mph N/A   Overcast
3:54 AM 34.5 °F 22.5 °F 32.0 °F 90% 29.50 in 10.0 mi West 23.0 mph 29.9 mph N/A   Overcast
4:15 AM 33.8 °F 20.5 °F 31.8 °F 92% 29.51 in 7.0 mi West 27.6 mph 36.8 mph N/A   Overcast
4:34 AM 32.5 °F 21.9 °F 30.4 °F 92% 29.51 in 10.0 mi West 16.1 mph 25.3 mph N/A   Overcast
4:54 AM 32.5 °F 20.8 °F 30.6 °F 92% 29.52 in 7.0 mi West 19.6 mph 26.5 mph N/A   Overcast
5:15 AM 32.2 °F 19.7 °F 30.4 °F 93% 29.52 in 5.0 mi West 21.9 mph 27.6 mph N/A   Overcast
5:34 AM 31.8 °F 18.7 °F 29.5 °F 91% 29.54 in 3.0 mi West 24.2 mph 28.8 mph N/A   Overcast
5:54 AM 30.2 °F 18.1 °F 28.2 °F 92% 29.54 in 4.0 mi West 18.4 mph 27.6 mph N/A   Overcast
6:14 AM 29.8 °F 16.3 °F 27.3 °F 90% 29.56 in 7.0 mi West 23.0 mph 28.8 mph N/A   Overcast
6:34 AM 28.6 °F 15.3 °F 25.9 °F 90% 29.58 in 7.0 mi WSW 20.7 mph 24.2 mph N/A   Overcast
6:55 AM 26.8 °F 12.9 °F 23.9 °F 89% 29.59 in 10.0 mi WSW 20.7 mph 32.2 mph N/A   Overcast
7:14 AM 25.9 °F 11.7 °F 22.8 °F 88% 29.60 in 10.0 mi WSW 20.7 mph 31.1 mph N/A   Overcast
7:34 AM 25.3 °F 12.6 °F 21.9 °F 87% 29.61 in 10.0 mi WSW 16.1 mph 25.3 mph N/A   Overcast
7:54 AM 24.6 °F 10.9 °F 21.0 °F 86% 29.62 in 10.0 mi WSW 18.4 mph 25.3 mph N/A   Overcast
8:14 AM 24.3 °F 10.4 °F 20.7 °F 86% 29.62 in 3.0 mi WSW 18.4 mph 26.5 mph N/A Snow Light Snow
8:34 AM 23.9 °F 10.3 °F 20.1 °F 85% 29.63 in 2.5 mi WSW 17.3 mph 23.0 mph N/A Snow Light Snow
9:14 AM 22.5 °F 8.0 °F 18.7 °F 85% 29.65 in 1.2 mi WSW 18.4 mph 27.6 mph N/A Snow Light Snow
9:35 AM 21.9 °F 6.9 °F 17.2 °F 82% 29.66 in 2.0 mi WSW 19.6 mph 27.6 mph N/A Snow Light Snow
9:54 AM 21.4 °F 4.7 °F 16.0 °F 80% 29.67 in 4.0 mi WSW 24.2 mph 31.1 mph N/A Snow Light Snow
10:14 AM 21.2 °F 6.4 °F 15.3 °F 78% 29.68 in 7.0 mi WSW 18.4 mph 32.2 mph N/A Snow Light Snow
10:35 AM 21.2 °F 6.0 °F 15.8 °F 80% 29.69 in 4.0 mi West 19.6 mph 26.5 mph N/A Snow Light Snow
10:54 AM 21.0 °F 6.6 °F 15.8 °F 80% 29.70 in 1.0 mi WSW 17.3 mph 26.5 mph N/A Snow Light Snow
11:14 AM 20.3 °F 4.4 °F 15.4 °F 81% 29.70 in 1.5 mi WSW 20.7 mph 27.6 mph N/A Snow Light Snow
11:35 AM 20.1 °F 5.4 °F 15.1 °F 81% 29.71 in 1.5 mi WSW 17.3 mph - N/A Snow Light Snow
11:54 AM 20.1 °F 3.8 °F 14.7 °F 80% 29.72 in 1.8 mi West 21.9 mph 28.8 mph N/A Snow Light Snow
12:14 PM 20.8 °F 5.5 °F 12.2 °F 69% 29.73 in 10.0 mi West 19.6 mph 34.5 mph N/A   Overcast
12:35 PM 20.1 °F 4.2 °F 13.8 °F 77% 29.73 in 4.0 mi WSW 20.7 mph 28.8 mph N/A Snow Light Snow
12:54 PM 19.8 °F 4.1 °F 13.1 °F 75% 29.73 in 4.0 mi West 19.6 mph 32.2 mph N/A Snow Light Snow
1:14 PM 19.2 °F 3.4 °F 12.4 °F 75% 29.74 in 3.0 mi West 19.6 mph 32.2 mph N/A Snow Light Snow
1:34 PM 19.0 °F 2.7 °F 13.3 °F 78% 29.74 in 2.0 mi WSW 20.7 mph 27.6 mph N/A Snow Light Snow
1:54 PM 18.9 °F 1.4 °F 12.4 °F 76% 29.75 in 2.5 mi West 24.2 mph 33.4 mph N/A Snow Light Snow
2:14 PM 19.2 °F 2.2 °F 12.0 °F 74% 29.76 in 5.0 mi West 23.0 mph 31.1 mph N/A Snow Light Snow
2:34 PM 19.0 °F 3.2 °F 11.5 °F 72% 29.77 in 7.0 mi West 19.6 mph 31.1 mph N/A Snow Light Snow
2:54 PM 19.2 °F 2.2 °F 12.0 °F 74% 29.77 in 7.0 mi West 23.0 mph 27.6 mph N/A Snow Light Snow
3:15 PM 18.7 °F 1.5 °F 11.7 °F 74% 29.79 in 5.0 mi West 23.0 mph 31.1 mph N/A Snow Light Snow
3:34 PM 18.0 °F 0.9 °F 11.7 °F 76% 29.80 in 2.5 mi West 21.9 mph 27.6 mph N/A Snow Light Snow
3:54 PM 18.1 °F 2.0 °F 10.9 °F 73% 29.81 in 7.0 mi West 19.6 mph 32.2 mph N/A Snow Light Snow
4:15 PM 17.8 °F -0.4 °F 11.1 °F 75% 29.82 in 5.0 mi WSW 25.3 mph 31.1 mph N/A Snow Light Snow
4:34 PM 17.6 °F 1.3 °F 11.8 °F 78% 29.84 in 5.0 mi WSW 19.6 mph 27.6 mph N/A Snow Light Snow
4:54 PM 17.4 °F 1.5 °F 11.7 °F 78% 29.84 in 5.0 mi West 18.4 mph 25.3 mph N/A Snow Light Snow
5:15 PM 17.2 °F -0.4 °F 10.8 °F 76% 29.86 in 5.0 mi West 23.0 mph 27.6 mph N/A Snow Light Snow
5:34 PM 17.4 °F 1.0 °F 11.1 °F 76% 29.86 in 5.0 mi West 19.6 mph 27.6 mph N/A Snow Light Snow
5:54 PM 17.2 °F 1.2 °F 11.3 °F 78% 29.88 in 5.0 mi West 18.4 mph 24.2 mph N/A Snow Light Snow
6:15 PM 16.7 °F 1.0 °F 11.5 °F 80% 29.88 in 3.0 mi West 17.3 mph 27.6 mph N/A Snow Light Snow
7:34 PM 16.2 °F 0.8 °F 11.1 °F 81% 29.92 in 7.0 mi WSW 16.1 mph 26.5 mph N/A Snow Light Snow
7:54 PM 15.8 °F -0.2 °F 10.9 °F 81% 29.93 in 5.0 mi WSW 17.3 mph 27.6 mph N/A Snow Light Snow
8:14 PM 15.8 °F 0.3 °F 11.1 °F 82% 29.93 in 5.0 mi West 16.1 mph 23.0 mph N/A Snow Light Snow
8:34 PM 15.8 °F -0.6 °F 11.3 °F 82% 29.94 in 5.0 mi West 18.4 mph 24.2 mph N/A Snow Light Snow
8:54 PM 16.2 °F -1.0 °F 11.3 °F 81% 29.94 in 5.0 mi West 20.7 mph 26.5 mph N/A Snow Light Snow
9:14 PM 16.3 °F 0.1 °F 11.1 °F 80% 29.95 in 7.0 mi West 18.4 mph 23.0 mph N/A Snow Light Snow
9:34 PM 16.3 °F -0.4 °F 11.3 °F 81% 29.96 in 5.0 mi West 19.6 mph 23.0 mph N/A Snow Light Snow
9:55 PM 16.3 °F -0.4 °F 11.3 °F 81% 29.96 in 5.0 mi West 19.6 mph 24.2 mph N/A Snow Light Snow
10:14 PM 16.5 °F 2.4 °F 12.0 °F 82% 29.97 in 4.0 mi West 13.8 mph - N/A Snow Light Snow
10:34 PM 16.5 °F 1.8 °F 12.0 °F 82% 29.97 in 5.0 mi West 15.0 mph 20.7 mph N/A Snow Light Snow
10:54 PM 16.5 °F 1.8 °F 12.0 °F 82% 29.97 in 7.0 mi West 15.0 mph - N/A Snow Light Snow
11:14 PM 16.5 °F 1.8 °F 12.2 °F 83% 29.97 in 5.0 mi West 15.0 mph - N/A Snow Light Snow
11:35 PM 16.7 °F 2.0 °F 12.6 °F 84% 29.97 in 5.0 mi West 15.0 mph 20.7 mph N/A Snow Light Snow
11:54 PM 16.7 °F 3.2 °F 12.7 °F 84% 29.97 in 7.0 mi West 12.7 mph 20.7 mph N/A Snow Light Snow